Weather History for Sand Point, AK

Change the Weather History Date:

Wednesday, October 9, 2013

  Actual Average Record
Temperature  
Mean Temperature 46 °F -  
Max Temperature 48 °F 45 °F 54 °F (1983)
Min Temperature 44 °F 39 °F 32 °F (1984)
Degree Days  
Heating Degree Days 19    
Moisture  
Dew Point 43 °F    
Average Humidity 87    
Maximum Humidity 100    
Minimum Humidity 76    
Precipitation  
Precipitation 0.00 in - - ()
Sea Level Pressure  
Sea Level Pressure 29.92 in    
Wind  
Wind Speed 15 mph (SSW)    
Max Wind Speed 32 mph    
Max Gust Speed 43 mph    
Visibility 8 miles    
Events      
Averages and records for this station are not official NWS values.
T = Trace of Precipitation, MM = Missing Value Source: NWS Daily Summary

Daily Weather History Graph

Daily Weather History Graph

Search for Another Location

Airport:

Trip Planner

Search our weather history database for the weather conditions in past years. The results will help you decide how hot, cold, wet, or windy it might be!

Date:

Astronomy

Oct. 09, 2013 Rise Set
Actual Time 9:01 AM AKDT 7:56 PM AKDT
Civil Twilight 8:24 AM AKDT 8:32 PM AKDT
Nautical Twilight 7:42 AM AKDT 9:14 PM AKDT
Astronomical Twilight 6:59 AM AKDT 9:57 PM AKDT
Moon 2:50 PM AKDT (10/9) 11:01 PM AKDT (10/9)
Length of Visible Light 12h 08m
Length of Day
10h 54m
Waxing Crescent, 27% of the Moon is Illuminated
Oct 9
Waxing Crescent
Oct 11
First Quarter
Oct 18
Full
Oct 26
Last Quarter
Nov 3
New

Hourly Weather History & Observations

Time (AKDT) Temp. Windchill Dew Point Humidity Pressure Visibility Wind Dir Wind Speed Gust Speed Precip Events Conditions
12:16 AM 46.4 °F 40.4 °F 41.0 °F 81% 29.95 in 10.0 mi West 13.8 mph - N/A   Overcast
12:36 AM 46.4 °F 40.4 °F 41.0 °F 81% 29.95 in 10.0 mi WNW 13.8 mph - N/A   Mostly Cloudy
12:56 AM 46.4 °F 41.9 °F 39.2 °F 76% 29.97 in 10.0 mi West 9.2 mph - N/A   Partly Cloudy
1:16 AM 44.6 °F 40.7 °F 39.2 °F 81% 29.97 in 10.0 mi WSW 6.9 mph - N/A   Scattered Clouds
1:36 AM 46.4 °F 41.5 °F 41.0 °F 81% 29.97 in 10.0 mi West 10.4 mph - N/A   Partly Cloudy
1:56 AM 46.4 °F 43.5 °F 41.0 °F 81% 29.97 in 10.0 mi WSW 5.8 mph - N/A   Mostly Cloudy
2:16 AM 46.4 °F 41.5 °F 39.2 °F 76% 29.98 in 10.0 mi WSW 10.4 mph - N/A   Mostly Cloudy
2:36 AM 46.4 °F 41.1 °F 39.2 °F 76% 29.98 in 10.0 mi WSW 11.5 mph - N/A   Scattered Clouds
2:56 AM 46.4 °F 40.4 °F 41.0 °F 81% 29.99 in 10.0 mi West 13.8 mph - N/A   Overcast
3:16 AM 46.4 °F 42.9 °F 39.2 °F 76% 30.00 in 10.0 mi WSW 6.9 mph 17.3 mph N/A   Overcast
3:36 AM 46.4 °F 40.4 °F 39.2 °F 76% 30.00 in 10.0 mi SW 13.8 mph 19.6 mph N/A   Overcast
3:56 AM 46.4 °F 39.8 °F 39.2 °F 76% 30.01 in 10.0 mi WSW 16.1 mph 21.9 mph N/A   Mostly Cloudy
4:16 AM 46.4 °F 40.7 °F 39.2 °F 76% 30.01 in 10.0 mi West 12.7 mph 23.0 mph N/A   Mostly Cloudy
4:36 AM 46.4 °F 41.9 °F 39.2 °F 76% 30.01 in 10.0 mi WSW 9.2 mph - N/A   Overcast
4:56 AM 46.4 °F 41.5 °F 39.2 °F 76% 30.01 in 10.0 mi SW 10.4 mph 17.3 mph N/A   Overcast
5:16 AM 46.4 °F 40.7 °F 39.2 °F 76% 30.01 in 10.0 mi WSW 12.7 mph 18.4 mph N/A   Overcast
5:36 AM 46.4 °F 41.9 °F 39.2 °F 76% 30.00 in 10.0 mi WSW 9.2 mph 17.3 mph N/A   Mostly Cloudy
5:56 AM 46.4 °F 41.5 °F 39.2 °F 76% 30.00 in 10.0 mi WSW 10.4 mph - N/A   Overcast
6:16 AM 46.4 °F 42.9 °F 39.2 °F 76% 30.01 in 10.0 mi WSW 6.9 mph - N/A   Overcast
6:36 AM 46.4 °F 40.7 °F 39.2 °F 76% 30.01 in 10.0 mi SW 12.7 mph 18.4 mph N/A   Overcast
6:56 AM 46.4 °F 41.5 °F 39.2 °F 76% 30.01 in 10.0 mi SSW 10.4 mph 17.3 mph N/A   Overcast
7:16 AM 46.4 °F 41.1 °F 39.2 °F 76% 30.00 in 10.0 mi WSW 11.5 mph 19.6 mph N/A   Overcast
7:36 AM 46.4 °F 41.5 °F 39.2 °F 76% 30.01 in 10.0 mi SSW 10.4 mph 18.4 mph N/A   Overcast
7:56 AM 46.4 °F 39.8 °F 41.0 °F 81% 30.00 in 10.0 mi SW 16.1 mph - N/A   Overcast
8:16 AM 46.4 °F 41.1 °F 42.8 °F 87% 30.00 in 10.0 mi SSW 11.5 mph - N/A   Overcast
8:36 AM 46.4 °F 42.9 °F 42.8 °F 87% 30.00 in 10.0 mi SW 6.9 mph - N/A   Overcast
8:56 AM 46.4 °F 41.1 °F 42.8 °F 87% 29.99 in 10.0 mi SSW 11.5 mph 18.4 mph N/A   Overcast
9:16 AM 46.4 °F 41.9 °F 41.0 °F 81% 29.99 in 10.0 mi SSW 9.2 mph - N/A   Overcast
9:36 AM 46.4 °F 41.5 °F 42.8 °F 87% 30.00 in 10.0 mi SW 10.4 mph - N/A   Overcast
9:56 AM 46.4 °F 41.5 °F 42.8 °F 87% 29.99 in 10.0 mi South 10.4 mph - N/A   Overcast
10:16 AM 46.4 °F 41.1 °F 44.6 °F 93% 29.99 in 5.0 mi South 11.5 mph - N/A   Overcast
10:36 AM 46.4 °F 40.4 °F 42.8 °F 87% 29.99 in 10.0 mi SSW 13.8 mph 19.6 mph N/A   Overcast
10:56 AM 46.4 °F 38.7 °F 42.8 °F 87% 29.99 in 9.0 mi SSW 20.7 mph - N/A   Overcast
11:16 AM 46.4 °F 39.2 °F 42.8 °F 87% 29.98 in 8.0 mi SW 18.4 mph 24.2 mph N/A   Overcast
11:36 AM 46.4 °F 40.4 °F 42.8 °F 87% 29.98 in 10.0 mi SSW 13.8 mph 25.3 mph N/A   Overcast
11:56 AM 46.4 °F 41.9 °F 44.6 °F 93% 29.98 in 7.0 mi SW 9.2 mph 20.7 mph N/A   Overcast
12:16 PM 48.2 °F - 44.6 °F 87% 29.97 in 7.0 mi South 16.1 mph 24.2 mph N/A   Overcast
12:36 PM 48.2 °F - 42.8 °F 82% 29.96 in 9.0 mi SW 17.3 mph 24.2 mph N/A   Overcast
12:56 PM 48.2 °F - 44.6 °F 87% 29.96 in 10.0 mi SSW 20.7 mph 26.5 mph N/A   Overcast
1:16 PM 48.2 °F - 44.6 °F 87% 29.96 in 10.0 mi SW 18.4 mph 26.5 mph N/A   Overcast
1:36 PM 48.2 °F - 44.6 °F 87% 29.94 in 10.0 mi SSW 25.3 mph 32.2 mph N/A   Overcast
1:56 PM 48.2 °F - 44.6 °F 87% 29.94 in 10.0 mi SSW 19.6 mph 25.3 mph N/A   Overcast
2:16 PM 48.2 °F - 44.6 °F 87% 29.94 in 10.0 mi SSW 20.7 mph 25.3 mph N/A   Overcast
2:36 PM 48.2 °F - 44.6 °F 87% 29.93 in 10.0 mi SSW 18.4 mph - N/A   Overcast
2:56 PM 48.2 °F - 44.6 °F 87% 29.92 in 10.0 mi SSW 20.7 mph 26.5 mph N/A   Overcast
3:16 PM 48.2 °F - 44.6 °F 87% 29.91 in 10.0 mi SSW 20.7 mph 31.1 mph N/A   Overcast
3:36 PM 48.2 °F - 44.6 °F 87% 29.90 in 10.0 mi South 19.6 mph 28.8 mph N/A   Overcast
3:56 PM 48.2 °F - 44.6 °F 87% 29.89 in 7.0 mi SSW 20.7 mph 28.8 mph N/A   Mostly Cloudy
4:16 PM 48.2 °F - 44.6 °F 87% 29.88 in 9.0 mi SSW 25.3 mph - N/A   Overcast
4:36 PM 48.2 °F - 44.6 °F 87% 29.89 in 9.0 mi South 19.6 mph 24.2 mph N/A   Overcast
4:56 PM 48.2 °F - 44.6 °F 87% 29.88 in 10.0 mi South 19.6 mph 29.9 mph N/A   Overcast
5:16 PM 48.2 °F - 46.4 °F 93% 29.87 in 10.0 mi South 21.9 mph 32.2 mph N/A   Overcast
5:36 PM 48.2 °F - 46.4 °F 93% 29.85 in 10.0 mi South 21.9 mph 29.9 mph N/A   Overcast
5:56 PM 48.2 °F - 46.4 °F 93% 29.85 in 7.0 mi South 28.8 mph 35.7 mph N/A   Overcast
6:16 PM 48.2 °F - 46.4 °F 93% 29.84 in 7.0 mi South 29.9 mph 41.4 mph N/A   Overcast
6:36 PM 48.2 °F - 46.4 °F 93% 29.83 in 7.0 mi South 31.1 mph 39.1 mph N/A   Overcast
6:56 PM 48.2 °F - 46.4 °F 93% 29.82 in 4.0 mi South 27.6 mph 36.8 mph N/A   Overcast
7:16 PM 48.2 °F - 46.4 °F 93% 29.81 in 4.0 mi South 27.6 mph 36.8 mph N/A   Overcast
7:36 PM 48.2 °F - 46.4 °F 93% 29.80 in 4.0 mi South 27.6 mph 38.0 mph N/A   Overcast
7:56 PM 48.2 °F - 46.4 °F 93% 29.79 in 4.0 mi South 32.2 mph 40.3 mph N/A   Overcast
8:16 PM 48.2 °F - 46.4 °F 93% 29.78 in 3.0 mi South 29.9 mph 40.3 mph N/A   Overcast
8:36 PM 48.2 °F - 46.4 °F 93% 29.77 in 5.0 mi South 31.1 mph 38.0 mph N/A   Overcast
8:56 PM 48.2 °F - 48.2 °F 100% 29.76 in 2.0 mi South 26.5 mph 38.0 mph N/A   Overcast
9:16 PM 48.2 °F - 48.2 °F 100% 29.76 in 3.0 mi South 32.2 mph 39.1 mph N/A   Overcast
9:36 PM 48.2 °F - 48.2 °F 100% 29.75 in 4.0 mi South 29.9 mph 40.3 mph N/A   Overcast
9:56 PM 48.2 °F - 48.2 °F 100% 29.74 in 4.0 mi South 32.2 mph 42.6 mph N/A   Overcast
10:16 PM 48.2 °F - 48.2 °F 100% 29.73 in 6.0 mi South 31.1 mph 41.4 mph N/A   Overcast
10:36 PM 48.2 °F - 48.2 °F 100% 29.73 in 5.0 mi South 28.8 mph 38.0 mph N/A   Overcast
10:56 PM 48.2 °F - 48.2 °F 100% 29.72 in 5.0 mi South 29.9 mph 38.0 mph N/A   Overcast
11:16 PM 48.2 °F - 48.2 °F 100% 29.72 in 5.0 mi South 28.8 mph 40.3 mph N/A   Overcast
11:36 PM 48.2 °F - 48.2 °F 100% 29.71 in 5.0 mi South 31.1 mph 38.0 mph N/A   Overcast
11:56 PM 48.2 °F - 48.2 °F 100% 29.71 in 5.0 mi South 28.8 mph 35.7 mph N/A   Overcast